Regional Weather Roundup
Issued by NWS Green Bay, WI

Home | Current Version | Previous Version | Text Only | Print | Product List | Glossary On
Versions: 1 2 3 4 5 6 7 8 9 10 11 12 13 14 15 16 17 18 19 20 21 22 23 24 25 26 27 28 29 30 31 32 33 34 35 36 37 38 39 40 41 42 43 44 45 46 47 48 49 50
000
ASUS43 KGRB 301611
RWRGRB

NORTH-CENTRAL AND NORTHEAST WISCONSIN REGIONAL WEATHER ROUNDUP
NATIONAL WEATHER SERVICE GREEN BAY WI
1100 AM CDT SUN AUG 30 2015

WIZ005-009-010>012-018-019-301700-
NORTH CENTRAL WISCONSIN

CITY           SKY/WX    TMP DP  RH WIND       PRES   REMARKS
IRONWOOD       SUNNY     72  63  73 S12       29.95S
MANITOWISH WTR CLOUDY    67  63  86 S12       30.03F
ARBOR VITAE    CLOUDY    65  62  89 S7        30.04F
EAGLE RIVER    CLOUDY    66  59  79 W8        30.04F
LAND O LAKES   SUNNY     70  60  71 S7        30.04S
RHINELANDER    CLOUDY    64  60  87 SW9       30.07S
PHILLIPS       CLOUDY    65  63  91 SW9       30.03S
ANTIGO         CLOUDY    63  61  91 W9        30.08S
TOMAHAWK       CLOUDY    63  62  97 CALM      30.06S
MERRILL        CLOUDY    64  63  97 SW6       30.07S
$$

WIZ013-073-301700-
NORTHEAST WISCONSIN

CITY           SKY/WX    TMP DP  RH WIND       PRES   REMARKS
IRON MOUNTAIN  SUNNY     72  61  68 S9        30.03R
MARINETTE      PTSUNNY   68  61  77 SW9       30.05S
OCONTO         PTSUNNY   68  64  85 W6        30.06S
$$

WIZ017-030-035>037-045-301700-
CENTRAL WISCONSIN

CITY           SKY/WX    TMP DP  RH WIND       PRES   REMARKS
MEDFORD        CLOUDY    65  62  91 S9        30.06S
WAUSAU         PTSUNNY   66  60  81 SW9       30.06S
MOSINEE        CLOUDY    64  64 100 SW8       30.09S
MARSHFIELD     PTSUNNY   69  60  73 SW10      30.07S
WISC RAPIDS    MOSUNNY   70  60  70 SW8       30.09S
STEVENS POINT  MOSUNNY   66  60  79 SW8       30.08F
WAUPACA        MOSUNNY   67  66  96 SW3       30.09R
SHAWANO        MOSUNNY   67  65  94 SW7       30.08S
CLINTONVILLE   PTSUNNY   68  61  77 SW3       30.08R
WAUTOMA        CLOUDY    66  66 100 CALM      30.09S
$$

WIZ038-039-048-051-301700-
FOX VALLEY

CITY           SKY/WX    TMP DP  RH WIND       PRES   REMARKS
NWS GREEN BAY  SUNNY     68  62  81 SW6       30.07F
APPLETON       PTSUNNY   66  61  82 VRB3      30.07S
OSHKOSH        PTSUNNY   66  62  87 S6        30.08S FOG
FOND DU LAC    PTSUNNY   69  63  81 SW5       30.09S
$$

WIZ022-050-052-301700-
EAST CENTRAL WISCONSIN

CITY           SKY/WX    TMP DP  RH WIND       PRES   REMARKS
EPHRAIM        PTSUNNY   69  62  79 W5        30.05F
STURGEON BAY   CLOUDY    66  61  82 S8        30.09S
MANITOWOC      CLOUDY    67  63  87 MISG      30.09S
SHEBOYGAN      PTSUNNY   67  62  84 VRB5      30.09S
$$

LMZ563-521-522-541>543-301700-
LAKESHORE

STATION/POSITION TIME  TEMP    WIND        PRES    VSBY  WAVE
                       AIR SEA DIR/SP/G                  HT/PER
                 (UTC) (F)     (DEG/KT/KT) (MB)    (MI)  (FT/S)
SHEBOYGAN LKSHOR 1600   55     150/  5/  5 1019.3R
NORTHPORT PIER   1500   64     140/  6/  8 1017.6S
N MID LAKE BUOY  1550   64 65  200/ 12/ 14 1017.6S         1
S GREEN BAY BUOY 1500   61 62  210/  8/ 10 1019.4
SISTER BAY LKSHO 1504   72     190/  6/  6   N/A
CHAMBERS ISLAND  1500   63     160/  5/  9 1017.9R
$$


USA.gov is the U.S. government's official web portal to all federal, state and local government web resources and services.